Location: Central Falls
(41.8900°N, 71.3929°W)
Time: 02:37:33
(UTC+00:00)

Tiros 1 - Pass Details

Date: 09 December 2023
Orbit: 625 x 658 km, 48.4° (Epoch: 01 March)

Event Time Altitude Azimuth Distance (km) Brightness Sun altitude
Rises 14:29:05 0° 288° (WNW) 2,985 10.1 18.8°
Reaches altitude 10° 14:31:58 10° 272° (W) 2,067 9.5 19.0°
Maximum altitude 14:35:23 20° 226° (SW) 1,517 9.4 19.4°
Drops below altitude 10° 14:38:46 10° 180° (S) 2,047 11.0 19.7°
Sets 14:41:37 0° 163° (SSE) 2,947 12.0 19.9°
